Volkel, Netherlands

5:47 AM CEST on September 01, 2016 (GMT +0200)
Volkel Air Base

Weather History for EHVK - March, 2014

Change the Weather History Date:

Thursday, March 20, 2014

  Actual Average Record
Temperature  
Mean Temperature 56 °F -  
Max Temperature 72 °F 54 °F 72 °F (2014)
Min Temperature 41 °F 38 °F 26 °F (2001)
Degree Days  
Heating Degree Days 8    
Growing Degree Days 6 (Base 50)    
Moisture  
Dew Point 40 °F    
Average Humidity 56    
Maximum Humidity 93    
Minimum Humidity 16    
Precipitation  
Precipitation 0.00 in - - ()
Sea Level Pressure  
Sea Level Pressure 29.93 in    
Wind  
Wind Speed 11 mph ()    
Max Wind Speed 23 mph    
Max Gust Speed 30 mph    
Visibility 7.5 miles    
Events      
Averages and records for this station are not official NWS values.
T = Trace of Precipitation, MM = Missing Value Source: Averaged Metar Reports

Daily Weather History Graph

Daily Weather History Graph

Search for Another Location

Airport or City:

Trip Planner

Search our weather history database for the weather conditions in past years. The results will help you decide how hot, cold, wet, or windy it might be!

Date:

Astronomy

Mar. 20, 2014 Rise Set
Actual Time 6:40 AM CET 6:50 PM CET
Civil Twilight 6:06 AM CET 7:23 PM CET
Nautical Twilight 5:27 AM CET 8:03 PM CET
Astronomical Twilight 4:46 AM CET 8:44 PM CET
Moon 11:23 PM CET (3/20) 8:09 AM CET (3/20)
Length of Visible Light 13h 16m
Length of Day
12h 09m
Waning Gibbous, 86% of the Moon is Illuminated
Mar 20
Waning Gibbous
Mar 24
Last Quarter
Mar 30
New
Apr 7
First Quarter
Apr 15
Full

Hourly Weather History & Observations

Time (CET) Temp. Windchill Dew Point Humidity Pressure Visibility Wind Dir Wind Speed Gust Speed Precip Events Conditions
12:00 AM 48 °F - 45 °F 84% 30.17 in 4 mi SW 11.2 mph - -   Mist
12:25 AM 48.2 °F - 44.6 °F 87% 30.15 in 3.7 mi SW 11.5 mph - N/A   Mist
12:55 AM 48.2 °F - 44.6 °F 87% 30.15 in 3.7 mi SW 11.5 mph - N/A   Mist
1:00 AM 47 °F - 44 °F 87% 30.16 in 4 mi SW 11.2 mph - -   Mist
1:11 AM 48.2 °F - 44.6 °F 87% 30.15 in 5.0 mi SW 12.7 mph - N/A   Mist
1:25 AM 48.2 °F - 44.6 °F 87% 30.15 in 5.0 mi SW 11.5 mph - N/A   Mist
1:55 AM 46.4 °F 41.5 °F 42.8 °F 87% 30.12 in 6.2 mi SW 10.4 mph - N/A   Unknown
2:00 AM 47 °F - 43 °F 81% 30.14 in 7 mi SW 11.2 mph - -  
2:25 AM 46.4 °F 41.5 °F 42.8 °F 87% 30.12 in 6.2 mi SW 10.4 mph - N/A   Unknown
2:55 AM 46.4 °F 41.5 °F 42.8 °F 87% 30.12 in 6.2 mi SSW 10.4 mph - N/A   Unknown
3:00 AM 47 °F - 42 °F 77% 30.12 in 8 mi SSW 11.2 mph - -  
3:25 AM 46.4 °F 41.9 °F 41.0 °F 81% 30.09 in 6.2 mi SSW 9.2 mph - N/A   Unknown
3:55 AM 44.6 °F 39.7 °F 41.0 °F 87% 30.09 in 6.2 mi SSW 9.2 mph - N/A   Unknown
4:00 AM 45 °F - 42 °F 83% 30.11 in 7 mi SSW 8.9 mph - -  
4:25 AM 44.6 °F 39.7 °F 41.0 °F 87% 30.09 in 6.2 mi SSW 9.2 mph - N/A   Unknown
4:55 AM 44.6 °F 40.2 °F 41.0 °F 87% 30.06 in 6.2 mi SSW 8.1 mph - N/A   Unknown
5:00 AM 45 °F - 41 °F 81% 30.09 in 7 mi SSW 8.9 mph - -  
5:25 AM 44.6 °F 40.2 °F 41.0 °F 87% 30.06 in 6.2 mi SSW 8.1 mph - N/A   Unknown
5:55 AM 42.8 °F 38.6 °F 41.0 °F 93% 30.06 in 6.2 mi SSW 6.9 mph - N/A   Unknown
6:25 AM 42.8 °F 39.3 °F 39.2 °F 87% 30.06 in 6.2 mi South 5.8 mph - N/A   Unknown
6:55 AM 42.8 °F 39.3 °F 39.2 °F 87% 30.06 in 6.2 mi South 5.8 mph - N/A   Unknown
7:00 AM 43 °F - 40 °F 84% 30.08 in 8 mi South 6.7 mph - -   Partly Cloudy
7:25 AM 44.6 °F 41.4 °F 41.0 °F 87% 30.06 in 6.2 mi South 5.8 mph - N/A   Unknown
7:55 AM 46.4 °F 43.5 °F 41.0 °F 81% 30.06 in 6.2 mi South 5.8 mph - N/A   Unknown
7:56 AM 46.4 °F 43.5 °F 41.0 °F 81% 30.06 in 6.2 mi South 5.8 mph - N/A   Unknown
8:00 AM 46 °F - 41 °F 77% 30.07 in 10 mi South 6.7 mph - -  
8:25 AM 48.2 °F - 41.0 °F 76% 30.06 in 6.2 mi South 8.1 mph - N/A   Unknown
8:55 AM 50.0 °F - 42.8 °F 76% 30.04 in 6.2 mi South 10.4 mph - N/A   Unknown
9:00 AM 50 °F - 42 °F 65% 30.06 in 12 mi SSW 11.2 mph - -  
9:25 AM 51.8 °F - 42.8 °F 71% 30.04 in 6.2 mi SSW 10.4 mph - N/A   Unknown
9:55 AM 53.6 °F - 42.8 °F 67% 30.04 in 6.2 mi SSW 11.5 mph - N/A   Unknown
10:00 AM 55 °F - 42 °F 52% 30.04 in 12 mi SSW 11.2 mph - -  
10:25 AM 57.2 °F - 41.0 °F 55% 30.01 in 6.2 mi SSW 11.5 mph - N/A   Partly Cloudy
10:55 AM 59.0 °F - 41.0 °F 51% 30.01 in 6.2 mi South 11.5 mph - N/A   Unknown
11:00 AM 60 °F - 41 °F 38% 30.01 in 16 mi South 13.4 mph - -  
11:25 AM 60.8 °F - 41.0 °F 48% 29.98 in 6.2 mi South 12.7 mph - N/A   Unknown
11:55 AM 62.6 °F - 39.2 °F 42% 29.95 in 6.2 mi South 15.0 mph - N/A   Unknown
12:00 PM 64 °F - 38 °F 27% 29.96 in 19 mi South 15.7 mph - -  
12:25 PM 66.2 °F - 37.4 °F 35% 29.95 in 6.2 mi South 15.0 mph - N/A   Unknown
12:34 PM 66.2 °F - 39.2 °F 37% 29.92 in 6.2 mi South 13.8 mph - N/A   Unknown
12:55 PM 66.2 °F - 41.0 °F 40% 29.92 in 6.2 mi South 13.8 mph - N/A   Unknown
1:00 PM 67 °F - 39 °F 24% 29.92 in 16 mi South 15.7 mph - -   Partly Cloudy
1:25 PM 68.0 °F - 35.6 °F 30% 29.89 in 6.2 mi South 18.4 mph - N/A   Unknown
1:55 PM 68.0 °F - 35.6 °F 30% 29.86 in 6.2 mi South 19.6 mph - N/A   Unknown
2:00 PM 68 °F - 37 °F 21% 29.86 in 18 mi South 17.9 mph - -  
2:25 PM 69.8 °F - 35.6 °F 28% 29.83 in 6.2 mi SSE 18.4 mph - N/A   Unknown
2:55 PM 71.6 °F - 35.6 °F 27% 29.80 in 6.2 mi SSE 18.4 mph 29.9 mph N/A   Unknown
3:00 PM 70 °F - 34 °F 16% 29.79 in 22 mi SSE 20.1 mph - -  
3:25 PM 71.6 °F - 35.6 °F 27% 29.77 in 6.2 mi South 18.4 mph - N/A   Unknown
3:44 PM 71.6 °F - 35.6 °F 27% 29.77 in 6.2 mi South 20.7 mph - N/A   Unknown
3:55 PM 71.6 °F - 37.4 °F 29% 29.77 in 6.2 mi South 18.4 mph - N/A   Unknown
4:00 PM 72 °F - 37 °F 17% 29.77 in 17 mi South 17.9 mph - -   Scattered Clouds
4:25 PM 71.6 °F - 37.4 °F 29% 29.74 in 6.2 mi SSW 23.0 mph - N/A   Partly Cloudy
4:55 PM 69.8 °F - 35.6 °F 28% 29.74 in 6.2 mi SSW 21.9 mph - N/A   Unknown
5:00 PM 70 °F - 36 °F 19% 29.75 in 25 mi SSW 22.4 mph - -  
5:25 PM 69.8 °F - 37.4 °F 31% 29.74 in 6.2 mi SSW 19.6 mph - N/A   Partly Cloudy
5:55 PM 68.0 °F - 37.4 °F 33% 29.74 in 6.2 mi SSW 18.4 mph - N/A   Partly Cloudy
6:00 PM 67 °F - 37 °F 22% 29.74 in 22 mi SSW 20.1 mph - -   Scattered Clouds
6:25 PM 66.2 °F - 37.4 °F 35% 29.74 in 6.2 mi SSW 18.4 mph - N/A   Unknown
6:55 PM 64.4 °F - 37.4 °F 37% 29.74 in 6.2 mi SSW 17.3 mph - N/A   Unknown
7:00 PM 63 °F - 39 °F 29% 29.75 in 28 mi SSW 15.7 mph - -   Partly Cloudy
7:25 PM 62.6 °F - 39.2 °F 42% 29.74 in 6.2 mi SSW 16.1 mph - N/A   Unknown
7:55 PM 60.8 °F - 41.0 °F 48% 29.74 in 6.2 mi SSW 12.7 mph - N/A   Unknown
8:00 PM 61 °F - 41 °F 36% 29.75 in 19 mi SSW 13.4 mph - -  
8:25 PM 59.0 °F - 41.0 °F 51% 29.74 in 6.2 mi SSW 10.4 mph - N/A   Unknown
8:55 PM 59.0 °F - 42.8 °F 55% 29.74 in 6.2 mi SSW 11.5 mph - N/A   Partly Cloudy
9:00 PM 60 °F - 42 °F 40% 29.75 in 18 mi SSW 11.2 mph - -   Scattered Clouds
9:25 PM 59.0 °F - 42.8 °F 55% 29.74 in 6.2 mi SSW 12.7 mph - N/A   Scattered Clouds
9:55 PM 59.0 °F - 42.8 °F 55% 29.74 in 6.2 mi SSW 12.7 mph - N/A   Partly Cloudy
10:00 PM 59 °F - 42 °F 42% 29.75 in 22 mi SSW 13.4 mph - -   Partly Cloudy
10:25 PM 59.0 °F - 42.8 °F 55% 29.74 in 6.2 mi SSW 13.8 mph - N/A   Partly Cloudy
10:55 PM 57.2 °F - 42.8 °F 59% 29.71 in 6.2 mi SSW 11.5 mph - N/A   Overcast
11:00 PM 57 °F - 42 °F 46% 29.73 in 22 mi SSW 11.2 mph - -   Mostly Cloudy
11:25 PM 55.4 °F - 42.8 °F 63% 29.71 in 6.2 mi SSW 9.2 mph - N/A   Mostly Cloudy
11:55 PM 53.6 °F - 41.0 °F 62% 29.71 in 6.2 mi WSW 5.8 mph - N/A   Overcast